sat.trackr.live / text

‹ back to catalog

HAWK-6B

NORAD 55324 · 2023-011A

PAYLOAD ACTIVE UNKNOWN

§ Identity

Operator
Country
US
Launch date
2023-01-24
Launch site
WLPIS
Launch vehicle
Mass (kg)
RCS (m²)

Purposes: tech_demo

External: N2YO · Heavens-Above · Gunter

§ Orbital elements

Epoch: 2026-09-20T02:45:01.821888Z

Period
94.51 min
Inclination
40.4978°
Eccentricity
0.0002993
Mean motion
15.23647001 rev/d
Perigee alt
492.8 km
Apogee alt
496.9 km
Semi-major
6,873.0 km
B*
1.6938e-4
RAAN
158.0778°
Arg perigee
313.5722°
Mean anomaly
46.4838°
Rev number
20,232

§ Raw data

HAWK-6B1 55324U 23011A   26263.11460442  .00003951  00000+0  16938-3 0  99942 55324  40.4978 158.0778 0002993 313.5722  46.4838 15.23647001202326

JSON: /api/v1/satellites/55324 · /tle

For live sub-satellite position, see the globe view (requires WebGL).

§ Visibility from observer

Set your observer location to see the next 7 days of passes ≥ 10°. The values pass through the URL so the page stays shareable.

No JS? Fill the form by hand. The geolocation button needs JavaScript.